{"data":{"norad_id":45399,"epoch":"2026-09-19T22:31:16.444992Z","epoch_age_seconds":62950,"freshness":"FRESH","line1":"1 45399U 20019AR  26262.93838478  .00065505  00000+0  39869-3 0  9998","line2":"2 45399  53.0313 228.2079 0005886  82.2061 277.9626 15.76844771360865","mean_motion":15.76844771,"eccentricity":0.0005886,"inclination_deg":53.0313,"raan_deg":228.2079,"arg_perigee_deg":82.2061,"mean_anomaly_deg":277.9626,"bstar":0.00039869,"rev_number":36086,"period_min":91.321607965684,"perigee_km":335.43285529179,"apogee_km":343.34072429714,"semimajor_km":6717.5237897945,"source":"CELESTRAK","updated_at":"2026-09-20T09:00:38.233640Z"}}